Stations météo

réclame
Mon MeteoGroup
Essen-Bredeney, Allemagne (10410): Température de l'air & dewpoint: 12.10.2019 21:00:00 - 18.10.2019 21:00:00 (CEST)Essen-Bredeney, Allemagne (10410): Température de l'air 5cm & Température de l'air -5cm: 12.10.2019 21:00:00 - 18.10.2019 21:00:00 (CEST)Essen-Bredeney, Allemagne (10410): Température de l'air -20cm & Température de l'air -100cm: 12.10.2019 21:00:00 - 18.10.2019 21:00:00 (CEST)Essen-Bredeney, Allemagne (10410): Vitesse du vent & gusts: 12.10.2019 21:00:00 - 18.10.2019 21:00:00 (CEST)Essen-Bredeney, Allemagne (10410): Direction du vent: 12.10.2019 21:00:00 - 18.10.2019 21:00:00 (CEST)Essen-Bredeney, Allemagne (10410): reduced air pressure: 12.10.2019 21:00:00 - 18.10.2019 21:00:00 (CEST)Essen-Bredeney, Allemagne (10410): visibility: 12.10.2019 21:00:00 - 18.10.2019 21:00:00 (CEST)Essen-Bredeney, Allemagne (10410): Ensoleillement: 12.10.2019 21:00:00 - 18.10.2019 21:00:00 (CEST)Essen-Bredeney, Allemagne (10410): Quantités de précipitations: 12.10.2019 21:00:00 - 18.10.2019 21:00:00 (CEST)
Date & Time tt [°C] td [°C] tt 5cm [°C] tt -5cm [°C] tt -20cm [°C] tt -100cm [°C] ff [km/h] ff [knt] fx [km/h] fx [knt] dd ppp [hPa] vv [km] sd [min] rr [mm]
18.10.2019 21:00:00 11,5 6,5 10,0 9,9 12,5 14,4 16 8 32 18 SSW 1008,7 75 0 0,0
18.10.2019 20:00:00 11,3 6,5 9,7 10,3 12,8 14,5 13 7 27 14 SSW 1008,8 74 0 0,0
18.10.2019 19:00:00 11,9 6,8 10,3 11,0 13,0 14,5 16 9 36 20 SSW 1008,4 74 4 0,0
18.10.2019 18:00:00 12,5 6,8 11,3 11,9 13,1 14,5 24 13 41 22 SW 1007,8 73 14 0,0
18.10.2019 17:00:00 12,9 7,0 13,0 12,7 13,1 14,5 20 11 44 24 SW 1007,3 61 16 0,0
18.10.2019 16:00:00 12,6 7,2 12,6 12,9 13,2 14,5 22 12 45 24 SW 1006,8 74 4 0,0
18.10.2019 15:00:00 11,8 7,2 10,9 12,8 13,2 14,5 26 14 51 28 SW 1006,4 75 1 0,1
18.10.2019 14:00:00 11,0 7,9 9,9 12,6 13,3 14,5 21 12 43 23 SSW 1005,2 73 0 0,2
18.10.2019 13:00:00 10,3 9,4 10,0 13,2 13,3 14,5 21 11 62 34 SW 1005,7 13 10 5,1
18.10.2019 12:00:00 16,3 11,5 17,5 14,7 13,0 14,5 30 16 53 29 S 1003,7 69 48 0,0
18.10.2019 11:00:00 15,3 11,5 16,0 13,7 12,9 14,5 24 13 42 23 S 1004,9 65 39 0,0
18.10.2019 10:00:00 14,5 11,3 14,9 12,4 12,9 14,5 20 11 37 20 S 1005,7 54 8 0,0
18.10.2019 09:00:00 13,8 11,1 13,0 12,0 12,9 14,5 22 12 41 22 S 1006,2 69 0 0,0
18.10.2019 08:00:00 12,8 10,9 11,6 12,1 13,0 14,5 18 10 32 18 S 1006,3 69 0 0,0
18.10.2019 07:00:00 12,8 10,8 11,7 12,0 13,1 14,5 20 11 37 20 S 1006,8 69 0 0,0
18.10.2019 06:00:00 12,7 10,6 11,6 12,0 13,2 14,5 19 10 34 19 SSE 1007,2 69 0 0,0
18.10.2019 05:00:00 12,5 10,5 11,4 11,9 13,3 14,5 18 10 27 14 SSE 1008,1 75 0 0,0
18.10.2019 04:00:00 12,5 10,8 11,0 11,9 13,4 14,5 15 8 24 13 S 1009,0 61 0 0,0
18.10.2019 03:00:00 12,6 11,7 11,3 12,2 13,6 14,5 13 7 22 12 S 1009,2 64 0 0,0
18.10.2019 02:00:00 12,8 12,3 11,6 12,6 13,7 14,5 7 4 16 9 S 1009,6 40 0 0,0
18.10.2019 01:00:00 13,4 12,6 12,3 13,3 13,8 14,5 10 6 21 11 SSW 1009,7 49 0 0,0
18.10.2019 00:00:00 13,7 12,9 13,0 13,4 13,9 14,5 9 5 24 13 S 1009,7 49 0 0,0
17.10.2019 23:00:00 13,8 12,9 13,1 13,7 14,0 14,5 11 6 29 16 SSW 1010,1 57 0 0,0
17.10.2019 22:00:00 13,9 12,9 13,3 13,8 14,0 14,5 10 5 25 14 S 1009,9 74 0 0,1
17.10.2019 21:00:00 13,9 13,2 13,4 13,9 14,1 14,5 13 7 28 15 S 1010,0 60 0 0,1
17.10.2019 20:00:00 13,9 13,2 13,4 14,1 14,1 14,5 16 9 27 15 S 1009,8 58 0 0,0
17.10.2019 19:00:00 14,3 13,4 13,7 14,3 14,2 14,5 14 7 26 14 S 1009,8 20 0 0,0
17.10.2019 18:00:00 13,4 13,4 13,3 14,6 14,2 14,5 9 5 13 7 ESE 1009,9 10 0 0,0
17.10.2019 17:00:00 13,3 13,1 13,4 14,9 14,1 14,5 6 4 12 7 SE 1010,3 23 1 0,4
17.10.2019 16:00:00 13,1 12,9 13,3 15,0 14,1 14,5 6 4 17 9 SSE 1011,1 2,3 0 0,5
17.10.2019 15:00:00 14,1 11,7 13,9 15,6 13,9 14,5 11 6 22 12 S 1011,3 45 0 0,0
17.10.2019 14:00:00 14,6 11,9 15,0 16,2 13,6 14,5 12 6 22 12 SSW 1011,4 41 17 0,0
17.10.2019 13:00:00 13,7 12,4 14,1 14,9 13,5 14,5 13 7 42 23 WSW 1011,8 52 3 0,7
17.10.2019 12:00:00 13,7 13,3 13,8 14,1 13,4 14,5 12 7 26 14 SSW 1011,0 3,9 0 0,7
17.10.2019 11:00:00 13,5 13,4 13,5 13,6 13,3 14,5 11 6 23 12 SSW 1010,7 2,3 0 0,5
17.10.2019 10:00:00 13,2 13,1 13,0 13,2 13,3 14,5 12 7 21 11 SW 1010,4 12 0 0,2
17.10.2019 09:00:00 12,9 12,7 12,7 13,0 13,3 14,5 8 4 19 11 SSW 1010,0 31 0 0,4
17.10.2019 08:00:00 13,0 12,4 12,5 13,0 13,3 14,5 8 4 21 11 S 1009,2 10 0 0,0
17.10.2019 07:00:00 13,1 12,2 12,5 13,0 13,4 14,5 10 5 20 11 S 1008,7 60 0 0,0
17.10.2019 06:00:00 12,9 12,1 12,4 12,9 13,4 14,5 9 5 25 14 S 1008,8 49 0 0,0
17.10.2019 05:00:00 12,8 12,2 12,3 12,9 13,4 14,5 12 7 26 14 S 1008,6 51 0 0,2
17.10.2019 04:00:00 12,8 12,1 12,3 12,9 13,5 14,5 14 8 29 16 S 1008,5 54 0 0,3
17.10.2019 03:00:00 12,7 12,0 12,2 13,0 13,5 14,5 14 7 30 16 S 1008,7 10 0 0,4
17.10.2019 02:00:00 12,6 12,3 12,3 13,0 13,6 14,5 16 9 34 19 S 1008,8 6 0 0,3
17.10.2019 01:00:00 12,8 12,3 12,4 13,1 13,6 14,5 17 9 29 16 S 1008,9 4,4 0 1,2
17.10.2019 00:00:00 12,9 12,5 12,5 13,2 13,7 14,5 14 8 27 14 S 1009,1 12 0 1,8
16.10.2019 23:00:00 13,0 12,4 12,5 13,2 13,7 14,5 11 6 25 13 S 1009,0 15 0 0,2
16.10.2019 22:00:00 12,8 12,5 12,6 13,3 13,8 14,5 13 7 27 15 S 1009,1 7 0 0,4
16.10.2019 21:00:00 12,7 12,6 12,6 13,4 13,8 14,5 16 8 27 15 S 1009,0 4,5 0 1,2
16.10.2019 20:00:00 12,6 12,5 12,5 13,5 13,9 14,5 14 8 27 15 S 1009,2 3,6 0 0,7
16.10.2019 19:00:00 12,7 12,5 12,5 13,6 14,0 14,5 13 7 32 17 S 1009,0 3,8 0 0,6
16.10.2019 18:00:00 12,7 12,3 12,5 13,9 14,0 14,5 12 7 29 15 S 1008,8 34 0 0,0
16.10.2019 17:00:00 12,5 12,2 12,5 14,1 14,1 14,5 11 6 29 16 S 1008,9 9 0 0,0
16.10.2019 16:00:00 12,4 11,9 12,5 14,3 14,1 14,5 16 9 29 16 S 1009,0 21 0 0,3
16.10.2019 15:00:00 12,2 11,6 12,3 14,5 14,0 14,4 16 9 35 19 S 1009,3 5 0 0,2
16.10.2019 14:00:00 13,9 10,2 14,1 14,9 13,9 14,4 16 8 40 21 S 1009,4 70 1 0,0
16.10.2019 13:00:00 14,0 10,1 15,0 16,0 13,6 14,4 19 10 34 18 S 1009,8 42 47 0,0
16.10.2019 12:00:00 13,6 9,9 15,3 14,9 13,4 14,4 19 10 30 16 S 1010,3 46 50 0,0
16.10.2019 11:00:00 12,7 9,6 13,5 13,8 13,3 14,4 14 8 26 14 S 1010,6 51 57 0,0
16.10.2019 10:00:00 11,8 9,8 12,2 12,5 13,3 14,4 11 6 26 14 S 1010,7 39 48 0,0
16.10.2019 09:00:00 10,8 9,9 10,2 12,1 13,4 14,4 11 6 20 11 SSW 1010,4 32 0 0,0
16.10.2019 08:00:00 10,6 10,2 10,4 12,1 13,5 14,4 12 7 21 12 SSW 1010,3 28 0 0,5
16.10.2019 07:00:00 10,9 9,6 10,4 12,2 13,7 14,4 11 6 22 12 SSW 1010,1 45 0 0,0
16.10.2019 06:00:00 11,0 9,7 10,4 12,4 13,8 14,4 11 6 28 15 SW 1010,0 40 0 0,0
16.10.2019 05:00:00 11,6 10,8 11,2 12,7 13,9 14,4 14 7 25 13 SW 1010,0 28 0 0,1
16.10.2019 04:00:00 11,7 11,2 11,2 12,8 14,0 14,4 10 6 24 13 SW 1009,9 18 0 0,0
16.10.2019 03:00:00 11,9 11,5 11,4 13,0 14,2 14,4 14 7 27 14 SW 1009,8 15 0 0,1
16.10.2019 02:00:00 12,0 11,6 11,6 13,2 14,3 14,4 13 7 23 13 SW 1009,5 14 0 0,1
16.10.2019 01:00:00 12,3 11,9 12,0 13,5 14,4 14,4 12 6 26 14 WSW 1009,2 10 0 0,2
16.10.2019 00:00:00 12,5 12,4 12,3 13,7 14,5 14,4 11 6 23 13 WSW 1008,9 4,6 0 1,1
15.10.2019 23:00:00 12,5 12,5 12,4 13,8 14,7 14,4 8 5 20 11 WSW 1008,8 6 0 1,4
15.10.2019 22:00:00 12,4 12,2 12,2 14,0 14,8 14,3 8 4 17 9 WSW 1008,4 8 0 1,3
15.10.2019 21:00:00 12,6 12,3 12,3 14,3 15,0 14,3 6 4 16 8 WSW 1008,1 7 0 1,5
15.10.2019 20:00:00 12,9 12,1 12,4 14,7 15,1 14,3 11 6 23 13 WSW 1007,7 11 0 1,7
15.10.2019 19:00:00 14,2 13,7 13,8 15,2 15,2 14,3 8 5 18 10 WSW 1007,0 17 0 0,8
15.10.2019 18:00:00 14,7 13,4 13,9 15,6 15,2 14,3 5 3 12 6 SW 1006,5 21 0 0,5
15.10.2019 17:00:00 15,5 13,2 15,2 16,1 15,2 14,3 5 3 14 8 SW 1006,5 75 0 0,0
15.10.2019 16:00:00 15,9 12,8 15,8 16,7 15,1 14,3 8 4 17 9 WSW 1006,4 49 0 0,0
15.10.2019 15:00:00 16,4 12,8 16,9 16,9 15,0 14,3 10 5 23 12 WSW 1006,7 64 0 0,0
15.10.2019 14:00:00 16,5 13,2 17,1 16,8 14,8 14,3 11 6 19 10 SW 1007,1 74 0 0,0
15.10.2019 13:00:00 16,6 12,9 17,3 16,7 14,6 14,3 6 3 15 8 SW 1006,8 48 0 0,0
15.10.2019 12:00:00 16,5 12,8 17,4 16,3 14,4 14,3 9 5 17 9 WSW 1006,5 59 21 0,0
15.10.2019 11:00:00 16,4 12,7 16,8 15,8 14,2 14,3 11 6 21 11 WSW 1006,9 59 34 0,0
15.10.2019 10:00:00 16,5 13,1 17,2 14,5 14,1 14,2 11 6 22 12 SW 1006,8 43 23 0,0
15.10.2019 09:00:00 16,2 12,7 15,1 13,5 14,2 14,2 6 3 13 7 SSW 1006,0 44 0 0,0
15.10.2019 08:00:00 15,8 12,4 13,8 13,2 14,4 14,2 6 4 13 7 SSW 1005,5 44 0 0,0
15.10.2019 07:00:00 15,9 12,5 13,8 13,3 14,5 14,2 6 4 13 7 S 1005,6 40 0 0,0
15.10.2019 06:00:00 16,4 12,5 13,5 13,6 14,7 14,2 5 3 12 7 SSW 1005,8 49 0 0,0
15.10.2019 05:00:00 16,9 12,4 14,5 14,0 14,8 14,2 6 4 19 10 SSW 1005,8 44 0 0,0
15.10.2019 04:00:00 17,5 12,5 15,4 14,3 14,9 14,2 9 5 24 13 S 1006,5 59 0 0,0
15.10.2019 03:00:00 18,3 12,4 16,4 14,6 15,0 14,2 14 8 29 16 S 1006,5 56 0 0,0
15.10.2019 02:00:00 19,6 12,4 17,7 14,9 15,1 14,2 16 8 31 17 S 1006,2 55 0 0,0
15.10.2019 01:00:00 19,7 12,6 18,2 15,1 15,2 14,2 16 8 32 17 S 1006,3 62 0 0,0
15.10.2019 00:00:00 20,0 12,7 18,4 15,3 15,3 14,2 16 9 35 19 S 1006,6 49 0 0,0
14.10.2019 23:00:00 20,4 12,8 19,0 15,3 15,4 14,1 22 12 40 21 S 1006,9 52 0 0,0
14.10.2019 22:00:00 20,4 13,0 18,6 15,4 15,5 14,1 24 13 37 20 SSE 1007,0 50 0 0,0
14.10.2019 21:00:00 20,3 12,7 18,2 15,5 15,7 14,1 21 11 35 19 SSE 1007,4 51 0 0,0
14.10.2019 20:00:00 19,5 13,3 17,3 15,9 15,9 14,1 16 9 26 14 SSE 1007,8 54 0 0,0
14.10.2019 19:00:00 19,7 13,6 17,7 16,7 16,0 14,1 17 9 26 14 SE 1007,5 43 5 0,0
14.10.2019 18:00:00 20,8 14,2 19,4 17,8 15,9 14,1 19 10 27 15 SSE 1008,2 56 57 0,0
14.10.2019 17:00:00 21,2 14,6 20,9 18,7 15,8 14,1 16 9 31 17 SSE 1008,9 48 53 0,0
14.10.2019 16:00:00 21,4 14,9 21,7 19,5 15,5 14,1 17 9 29 16 SSE 1009,4 53 54 0,0
14.10.2019 15:00:00 22,0 14,7 24,0 19,7 15,1 14,1 9 5 20 11 S 1009,8 57 47 0,0
14.10.2019 14:00:00 21,0 14,4 22,2 19,0 14,7 14,1 14 8 24 13 SE 1010,8 51 45 0,0
14.10.2019 13:00:00 18,1 13,7 19,2 17,7 14,3 14,1 10 5 16 9 E 1012,1 44 43 0,0
14.10.2019 12:00:00 17,2 13,6 19,6 16,2 14,1 14,0 10 5 18 10 E 1012,8 73 19 0,0
14.10.2019 11:00:00 15,4 12,3 16,2 14,9 14,0 14,0 8 4 16 9 E 1013,6 45 26 0,0
14.10.2019 10:00:00 14,3 12,4 14,8 13,8 14,1 14,0 9 5 13 7 ESE 1013,9 58 24 0,0
14.10.2019 09:00:00 13,2 12,0 12,7 13,0 14,2 14,0 4 2 7 4 E 1014,1 46 0 0,0
14.10.2019 08:00:00 12,4 11,9 9,9 13,2 14,4 14,0 4 2 5 3 ESE 1013,6 44 0 0,0
14.10.2019 07:00:00 12,7 12,3 11,1 13,3 14,6 14,0 3 2 6 4 ESE 1013,9 40 0 0,0
14.10.2019 06:00:00 12,4 12,0 10,2 13,9 14,8 14,0 3 2 6 4 ESE 1014,0 14 0 0,0
14.10.2019 05:00:00 14,0 12,6 12,6 14,6 15,0 14,0 4 2 14 8 SW 1014,1 60 0 0,0
14.10.2019 04:00:00 14,9 12,5 14,2 15,0 15,1 14,0 10 5 20 11 WSW 1013,8 74 0 0,0
14.10.2019 03:00:00 15,3 12,9 14,9 15,3 15,2 14,0 8 5 20 11 W 1013,5 62 0 0,0
14.10.2019 02:00:00 15,8 14,7 15,5 15,7 15,2 14,0 7 4 18 10 W 1013,0 46 0 0,0
14.10.2019 01:00:00 16,3 15,1 16,0 16,0 15,3 14,0 10 5 27 14 WSW 1012,4 47 0 0,0
14.10.2019 00:00:00 17,6 16,5 17,0 16,1 15,3 14,0 14 8 26 14 WSW 1011,5 39 0 0,1
13.10.2019 23:00:00 17,6 16,6 16,7 16,3 15,3 14,0 16 9 36 19 WSW 1010,8 32 0 1,9
13.10.2019 22:00:00 21,4 14,9 20,3 16,3 15,4 13,9 21 11 42 23 SSW 1009,2 55 0 0,0
13.10.2019 21:00:00 21,1 15,2 19,8 16,3 15,4 13,9 16 8 34 18 S 1008,4 50 0 0,0
13.10.2019 20:00:00 21,4 15,2 20,0 16,7 15,5 13,9 13 7 27 15 S 1008,0 63 0 0,0
13.10.2019 19:00:00 21,9 15,0 20,6 17,1 15,5 13,9 12 6 35 19 SSW 1007,9 50 0 0,0
13.10.2019 18:00:00 22,3 14,9 20,9 17,5 15,4 13,9 17 9 45 24 SSW 1007,8 55 4 0,0
13.10.2019 17:00:00 22,6 14,8 21,4 18,4 15,2 13,9 21 12 48 26 S 1006,9 58 47 0,0
13.10.2019 16:00:00 23,0 15,5 23,3 18,9 14,8 13,9 22 12 43 23 S 1007,0 44 60 0,0
13.10.2019 15:00:00 21,7 15,5 22,4 18,5 14,5 13,9 26 14 43 23 S 1007,6 47 57 0,0
13.10.2019 14:00:00 20,5 15,4 22,2 17,0 14,2 13,9 20 11 36 20 S 1008,3 52 19 0,0
13.10.2019 13:00:00 18,2 14,6 17,3 16,2 14,1 13,9 21 11 35 19 S 1009,2 62 0 0,1
13.10.2019 12:00:00 18,3 14,4 18,1 16,0 13,9 13,9 26 14 42 23 SSE 1009,3 60 8 0,0
13.10.2019 11:00:00 18,7 15,1 20,0 15,4 13,7 13,9 19 10 37 20 S 1009,3 57 6 0,0
13.10.2019 10:00:00 17,3 14,7 17,0 14,8 13,6 13,9 23 12 43 23 S 1009,5 52 10 0,0
13.10.2019 09:00:00 16,8 15,1 15,6 14,4 13,5 13,9 13 7 35 19 S 1009,4 29 0 0,3
13.10.2019 08:00:00 17,1 15,0 16,3 14,3 13,5 13,9 14 8 33 18 S 1009,4 27 0 0,0
13.10.2019 07:00:00 17,0 14,9 16,2 14,0 13,4 13,9 14 8 30 16 S 1009,3 42 0 0,0
13.10.2019 06:00:00 16,6 14,7 15,5 13,9 13,4 13,9 11 6 23 13 S 1009,4 40 0 0,0
13.10.2019 05:00:00 16,2 14,4 15,3 13,6 13,4 13,9 12 7 25 13 S 1009,7 37 0 0,0
13.10.2019 04:00:00 16,2 14,0 15,5 13,5 13,5 13,9 6 3 19 10 S 1010,1 43 0 0,0
13.10.2019 03:00:00 15,7 13,5 14,8 13,3 13,6 13,9 9 5 16 9 S 1010,5 43 0 0,0
13.10.2019 02:00:00 15,0 12,9 13,2 13,5 13,7 13,9 6 4 21 11 S 1010,9 41 0 0,0
13.10.2019 01:00:00 16,2 12,9 15,0 14,0 13,7 13,9 8 4 16 9 SSW 1011,1 54 0 0,0
13.10.2019 00:00:00 16,4 12,7 15,5 14,1 13,7 13,9 9 5 18 10 SSW 1011,0 57 0 0,0
12.10.2019 23:00:00 16,6 13,0 15,8 14,2 13,8 13,9 8 5 16 9 SSW 1010,8 53 0 0,0
12.10.2019 22:00:00 16,8 13,1 15,8 14,4 13,8 13,9 10 5 18 10 SSW 1010,3 56 0 0,0
12.10.2019 21:00:00 16,7 13,2 15,8 14,4 13,8 13,9 7 4 16 8 SSW 1010,0 47 0 0,0

tt = Température de l'air
td = dewpoint
tt 5cm = Température de l'air 5cm
tt -5cm = Température de l'air -5cm
tt -20cm = Température de l'air -20cm
tt -100cm = Température de l'air -100cm
ff = Vitesse du vent
fx = gusts
dd = Direction du vent
ppp = reduced air pressure
vv = visibility
sd = Ensoleillement
rr = Quantités de précipitations

stations d'obs. à proximité